N9ALD Weather Reports


time (UTC)temp
F
wind
direction
speed
knots
gust
knots
rain 1hr
in
rain 24hr
in
rain mn
in
humidity
%
barometer
mb
20260906075816 73 50 5.2 6.1 0.00 0.00 0.00 94 1010.9
20260906075316 73 74 0.9 1.7 0.00 0.00 0.00 94 1011.0
20260906074811 72 46 1.7 3.5 0.00 0.00 0.00 94 1011.1
20260906074311 72 44 2.6 3.5 0.00 0.00 0.00 94 1011.2
20260906073810 72 68 1.7 1.7 0.00 0.00 0.00 94 1011.0
20260906073305 72 54 3.5 3.5 0.00 0.00 0.00 94 1011.1
20260906072801 72 75 1.7 2.6 0.00 0.00 0.00 94 1010.8
20260906072257 72 47 3.5 3.5 0.00 0.00 0.00 94 1010.9
20260906071752 72 55 1.7 2.6 0.00 0.00 0.00 94 1011.0
20260906071252 72 41 3.5 5.2 0.00 0.00 0.00 94 1011.2
20260906070749 72 69 1.7 1.7 0.00 0.00 0.00 94 1011.2
20260906070244 72 92 1.7 2.6 0.00 0.00 0.00 94 1011.2
20260906065744 72 36 0.9 1.7 0.00 0.00 0.00 94 1011.2
20260906065239 73 73 0.9 1.7 0.00 0.00 0.00 94 1011.2
20260906064735 73 72 0.9 1.7 0.00 0.00 0.00 94 1011.3
20260906064230 73 80 1.7 1.7 0.00 0.00 0.00 94 1011.0
20260906063725 73 80 1.7 2.6 0.00 0.00 0.00 94 1011.0
20260906063221 73 56 0.9 0.9 0.00 0.00 0.00 94 1011.4
20260906062716 73 84 1.7 1.7 0.00 0.00 0.00 94 1011.3
20260906062215 73 77 1.7 2.6 0.00 0.00 0.00 94 1011.3
20260906061711 73 85 0.9 0.9 0.00 0.00 0.00 94 1011.3
20260906061207 73 55 0.9 0.9 0.00 0.00 0.00 94 1011.3
20260906060703 73 57 0.9 1.7 0.00 0.00 0.00 93 1011.5
20260906060200 73 76 1.7 1.7 0.00 0.00 0.00 93 1011.3
20260906055655 73 58 0.9 1.7 0.00 0.00 0.00 93 1011.3
20260906055150 73 55 0.9 0.9 0.00 0.00 0.00 93 1011.2
20260906054646 73 48 1.7 2.6 0.00 0.00 0.00 94 1011.1
20260906054140 73 54 1.7 2.6 0.00 0.00 0.00 94 1011.2
20260906053637 73 42 0.9 1.7 0.00 0.00 0.00 93 1011.2
20260906053138 73 47 0.9 0.9 0.00 0.00 0.00 93 1011.0
20260906052633 73 66 1.7 1.7 0.00 0.00 0.00 93 1011.0
20260906052130 74 48 0.9 0.9 0.00 0.00 0.00 93 1011.0
20260906051626 74 72 0.9 0.9 0.00 0.00 0.00 92 1011.0
20260906051126 74 55 0.9 0.9 0.00 0.00 0.00 92 1011.1
20260906050621 74 76 1.7 1.7 0.00 0.00 0.00 92 1011.0
20260906050116 74 63 1.7 2.6 0.00 0.00 0.00 92 1011.0
20260906045614 74 46 1.7 1.7 0.00 0.00 0.00 92 1011.0
20260906045110 74 53 1.7 2.6 0.00 0.00 0.00 93 1011.0
20260906044606 74 42 1.7 1.7 0.00 0.00 0.00 93 1010.9
20260906044101 74 54 2.6 2.6 0.00 0.00 0.00 93 1010.9
20260906043557 74 53 0.9 0.9 0.00 0.00 0.00 93 1010.8
20260906043052 74 51 0.9 0.9 0.00 0.00 0.00 92 1011.0
20260906042551 75 62 0.9 0.9 0.00 0.00 0.00 92 1010.6
20260906042046 75 65 0.9 1.7 0.00 0.00 0.00 92 1010.6
20260906041543 75 65 0.0 0.0 0.00 0.00 0.00 92 1010.7
20260906041037 75 46 0.9 0.9 0.00 0.00 0.00 91 1010.7
20260906040532 75 56 0.0 0.0 0.00 0.00 0.00 91 1010.6
20260906040028 75 75 0.0 0.0 0.00 0.00 0.00 90 1010.7
20260906035523 76 75 0.0 0.0 0.00 0.00 0.00 91 1010.6
20260906035019 76 61 0.9 1.7 0.00 0.00 0.00 91 1010.5
20260906034518 76 60 0.0 0.9 0.00 0.00 0.00 91 1010.6
20260906034013 76 74 0.9 1.7 0.00 0.00 0.00 90 1010.6
20260906033508 76 67 0.9 0.9 0.00 0.00 0.00 90 1010.6
20260906033004 77 64 2.6 3.5 0.00 0.00 0.00 89 1010.5
20260906032501 77 35 1.7 2.6 0.00 0.00 0.00 89 1010.4
20260906032000 77 39 1.7 1.7 0.00 0.00 0.00 88 1010.4
20260906031456 77 31 2.6 2.6 0.00 0.00 0.00 88 1010.4
20260906030951 77 52 1.7 1.7 0.00 0.00 0.00 88 1010.3
20260906030446 77 54 5.2 6.1 0.00 0.00 0.00 87 1010.3
20260906025940 77 52 4.3 5.2 0.00 0.00 0.00 87 1010.3
20260906025440 78 49 4.3 5.2 0.00 0.00 0.00 87 1010.4
20260906024939 78 28 4.3 5.2 0.00 0.00 0.00 87 1010.4
20260906024439 78 63 2.6 2.6 0.00 0.00 0.00 88 1010.2
20260906023939 78 68 2.6 3.5 0.00 0.00 0.00 89 1010.1
20260906023436 78 30 4.3 5.2 0.00 0.00 0.00 89 1010.3
20260906022936 78 54 2.6 6.1 0.00 0.00 0.00 89 1010.3
20260906022431 78 31 3.5 3.5 0.00 0.00 0.00 89 1010.2
20260906021926 78 42 2.6 3.5 0.00 0.00 0.00 89 1010.0
20260906021427 78 26 0.9 1.7 0.00 0.00 0.00 89 1010.1
20260906020926 78 41 1.7 1.7 0.00 0.00 0.00 88 1010.1
20260906020421 78 18 1.7 2.6 0.00 0.00 0.00 88 1009.9
20260906015921 78 24 0.9 1.7 0.00 0.00 0.00 87 1009.8
20260906015415 78 12 1.7 1.7 0.00 0.00 0.00 87 1009.9
20260906014915 79 356 2.6 2.6 0.00 0.00 0.00 86 1009.6
20260906014414 79 28 0.9 1.7 0.00 0.00 0.00 86 1009.5
20260906013911 79 51 0.9 1.7 0.00 0.00 0.00 85 1009.6
20260906013406 79 32 2.6 2.6 0.00 0.00 0.00 85 1009.6
20260906012902 79 38 2.6 2.6 0.00 0.00 0.00 85 1009.6
20260906012356 79 48 2.6 2.6 0.00 0.00 0.00 85 1009.6
20260906011856 79 47 2.6 2.6 0.00 0.00 0.00 85 1009.3
20260906011356 79 61 4.3 6.1 0.00 0.00 0.00 85 1009.4
20260906010852 79 12 3.5 3.5 0.00 0.00 0.00 85 1009.1
20260906010348 79 32 2.6 3.5 0.00 0.00 0.00 84 1009.2
20260906005843 79 33 1.7 2.6 0.00 0.00 0.00 84 1009.1
20260906005342 79 10 0.9 0.9 0.00 0.00 0.00 83 1009.1
20260906004842 79 26 0.9 0.9 0.00 0.00 0.00 82 1009.0
20260906004342 78 17 1.7 1.7 0.00 0.00 0.00 82 1009.0
20260906003837 78 15 0.9 0.9 0.00 0.00 0.00 82 1009.0
20260906003332 79 13 0.9 0.9 0.00 0.00 0.00 83 1008.8
20260906002827 79 13 0.0 0.0 0.00 0.00 0.00 81 1008.8
20260906002327 80 13 0.0 0.0 0.00 0.00 0.00 80 1009.0
20260906001823 81 13 0.0 0.0 0.00 0.00 0.00 78 1008.9
20260906001318 82 13 0.0 0.0 0.00 0.00 0.00 77 1008.7
20260906000813 82 13 0.0 0.0 0.00 0.00 0.00 75 1008.8
20260906000307 83 12 0.0 0.0 0.00 0.00 0.00 72 1008.8
20260905235802 83 13 0.0 0.0 0.00 0.00 0.00 72 1009.0
20260905235306 84 4 0.0 0.9 0.00 0.00 0.00 71 1008.8
20260905234757 84 39 0.0 0.0 0.00 0.00 0.00 71 1008.9
20260905234253 85 39 0.0 0.9 0.00 0.00 0.00 71 1009.0
20260905233748 86 39 1.7 1.7 0.00 0.00 0.00 73 1008.8
20260905233248 86 40 0.0 0.0 0.00 0.00 0.00 73 1008.9
20260905232747 86 39 1.7 1.7 0.00 0.00 0.00 69 1008.9
20260905232243 86 39 0.0 0.0 0.00 0.00 0.00 69 1008.8
20260905231739 86 39 0.9 0.9 0.00 0.00 0.00 69 1008.5
20260905231234 86 2 0.0 0.0 0.00 0.00 0.00 68 1008.7
20260905230730 86 5 0.0 0.0 0.00 0.00 0.00 68 1008.7
20260905230228 86 26 0.0 0.0 0.00 0.00 0.00 68 1008.7
20260905225728 85 24 0.9 0.9 0.00 0.00 0.00 68 1008.7
20260905225223 85 351 1.7 2.6 0.00 0.00 0.00 69 1008.4
20260905224722 84 307 1.7 2.6 0.00 0.00 0.00 71 1008.2
20260905224217 83 308 0.9 1.7 0.00 0.00 0.00 72 1008.4
20260905223713 83 7 1.7 1.7 0.00 0.00 0.00 72 1008.5
20260905223210 83 1 1.7 1.7 0.00 0.00 0.00 73 1008.7
20260905222705 83 13 1.7 1.7 0.00 0.00 0.00 73 1008.5
20260905222205 84 24 2.6 2.6 0.00 0.00 0.00 71 1008.2
20260905221700 85 49 4.3 5.2 0.00 0.00 0.00 70 1008.1
20260905221158 86 21 1.7 2.6 0.00 0.00 0.00 68 1008.4
20260905220653 88 24 5.2 6.1 0.00 0.00 0.00 66 1008.8
20260905220149 89 31 2.6 3.5 0.00 0.00 0.00 69 1008.3
20260905215648 89 313 0.9 1.7 0.00 0.00 0.00 67 1008.7
20260905215144 90 342 0.9 0.9 0.00 0.00 0.00 67 1008.0
20260905214640 90 345 0.0 0.0 0.00 0.00 0.00 67 1008.1
20260905214135 90 345 0.9 0.9 0.00 0.00 0.00 65 1008.4
20260905213630 90 357 1.7 2.6 0.00 0.00 0.00 64 1008.9
20260905213125 91 331 1.7 2.6 0.00 0.00 0.00 63 1008.5
20260905212621 92 351 2.6 3.5 0.00 0.00 0.00 61 1008.7
20260905212120 93 337 1.7 1.7 0.00 0.00 0.00 60 1008.3
20260905211615 94 10 1.7 1.7 0.00 0.00 0.00 59 1008.4
20260905211111 94 312 3.5 3.5 0.00 0.00 0.00 58 1008.4
20260905210607 94 343 1.7 2.6 0.00 0.00 0.00 57 1008.7
20260905205601 96 10 2.6 2.6 0.00 0.00 0.00 55 1008.5
20260905205100 96 0 0.9 1.7 0.00 0.00 0.00 57 1008.7
20260905204555 96 2 2.6 2.6 0.00 0.00 0.00 54 1008.8
20260905204050 96 23 1.7 1.7 0.00 0.00 0.00 56 1008.8
20260905203550 95 336 3.5 3.5 0.00 0.00 0.00 56 1008.9
20260905203045 95 337 0.9 0.9 0.00 0.00 0.00 58 1009.0
20260905202541 94 337 2.6 3.5 0.00 0.00 0.00 58 1009.0
20260905202036 93 325 4.3 6.1 0.00 0.00 0.00 57 1009.0
20260905201532 93 310 1.7 1.7 0.00 0.00 0.00 57 1009.0
20260905201031 95 33 5.2 6.1 0.00 0.00 0.00 56 1009.0
20260905200527 95 327 4.3 6.1 0.00 0.00 0.00 54 1009.0
20260905200026 96 342 1.7 1.7 0.00 0.00 0.00 54 1009.0
20260905195520 95 232 1.7 1.7 0.00 0.00 0.00 55 1009.1
20260905195016 95 13 2.6 3.5 0.00 0.00 0.00 56 1009.2
20260905194516 95 335 3.5 5.2 0.00 0.00 0.00 56 1009.2
20260905194016 95 337 4.3 6.1 0.00 0.00 0.00 56 1009.2
20260905193516 95 292 2.6 3.5 0.00 0.00 0.00 56 1009.3
20260905193011 94 311 1.7 1.7 0.00 0.00 0.00 57 1009.4
20260905192506 94 309 1.7 2.6 0.00 0.00 0.00 56 1009.6
20260905192003 94 358 1.7 2.6 0.00 0.00 0.00 57 1009.6
20260905191501 94 293 0.9 1.7 0.00 0.00 0.00 55 1009.5
20260905191000 94 226 3.5 3.5 0.00 0.00 0.00 55 1009.5
20260905190458 94 290 1.7 1.7 0.00 0.00 0.00 56 1009.6
20260905185957 93 215 2.6 2.6 0.00 0.00 0.00 58 1009.8
20260905185453 93 299 3.5 6.1 0.00 0.00 0.00 58 1009.7
20260905184951 93 214 1.7 2.6 0.00 0.00 0.00 59 1009.8
20260905184446 93 226 5.2 6.1 0.00 0.00 0.00 57 1010.0
20260905183945 93 203 4.3 7.0 0.00 0.00 0.00 57 1010.1
20260905183439 93 244 1.7 2.6 0.00 0.00 0.00 55 1010.1
20260905182934 93 296 1.7 2.6 0.00 0.00 0.00 56 1010.2
20260905182433 92 281 0.9 1.7 0.00 0.00 0.00 59 1010.4
20260905181929 92 232 4.3 6.1 0.00 0.00 0.00 55 1010.2
20260905181429 92 338 2.6 3.5 0.00 0.00 0.00 57 1010.5
20260905180928 92 284 2.6 3.5 0.00 0.00 0.00 55 1010.5
20260905180423 92 322 0.9 0.9 0.00 0.00 0.00 58 1010.6
20260905175918 92 259 2.6 3.5 0.00 0.00 0.00 56 1010.6
20260905175418 91 231 0.9 0.9 0.00 0.00 0.00 57 1010.5
20260905174913 91 203 3.5 5.2 0.00 0.00 0.00 57 1010.7
20260905174409 91 210 6.1 7.0 0.00 0.00 0.00 58 1010.6
20260905173904 90 224 1.7 1.7 0.00 0.00 0.00 56 1010.7
20260905173401 90 272 1.7 1.7 0.00 0.00 0.00 58 1010.6
20260905172855 89 295 1.7 2.6 0.00 0.00 0.00 60 1010.7
20260905172353 89 216 2.6 2.6 0.00 0.00 0.00 59 1010.8
20260905171849 89 221 1.7 1.7 0.00 0.00 0.00 58 1010.9
20260905171346 89 231 2.6 2.6 0.00 0.00 0.00 58 1011.0
20260905170842 89 236 0.9 1.7 0.00 0.00 0.00 61 1011.0
20260905170338 89 172 4.3 6.1 0.00 0.00 0.00 58 1011.1
20260905165837 88 6 0.9 1.7 0.00 0.00 0.00 61 1010.9
20260905165332 87 261 0.9 1.7 0.00 0.00 0.00 60 1011.0
20260905164832 88 173 5.2 6.1 0.00 0.00 0.00 59 1011.4
20260905164327 87 213 3.5 3.5 0.00 0.00 0.00 61 1011.4
20260905163823 87 194 3.5 5.2 0.00 0.00 0.00 60 1011.3
20260905163319 86 133 3.5 6.1 0.00 0.00 0.00 61 1011.3
20260905162815 86 234 4.3 5.2 0.00 0.00 0.00 62 1011.4
20260905162314 86 242 3.5 5.2 0.00 0.00 0.00 61 1011.3
20260905161809 85 238 3.5 5.2 0.00 0.00 0.00 61 1011.4
20260905161308 85 196 3.5 3.5 0.00 0.00 0.00 63 1011.3
20260905160807 85 217 4.3 6.1 0.00 0.00 0.00 63 1011.5
20260905160301 85 170 3.5 3.5 0.00 0.00 0.00 63 1011.4
20260905155756 85 215 1.7 1.7 0.00 0.00 0.00 65 1011.5
20260905155255 84 256 3.5 3.5 0.00 0.00 0.00 65 1011.4
20260905154754 84 194 2.6 3.5 0.00 0.00 0.00 65 1011.4
20260905154251 84 220 3.5 3.5 0.00 0.00 0.00 63 1011.3
20260905153746 84 201 5.2 7.0 0.00 0.00 0.00 63 1011.4
20260905153242 83 163 3.5 5.2 0.00 0.00 0.00 63 1011.6
20260905152737 83 185 0.9 0.9 0.00 0.00 0.00 67 1011.7
20260905152237 83 193 3.5 5.2 0.00 0.00 0.00 65 1011.8
20260905151736 83 186 2.6 2.6 0.00 0.00 0.00 65 1011.7
20260905151233 83 223 1.7 2.6 0.00 0.00 0.00 64 1011.7
20260905150732 82 189 0.9 1.7 0.00 0.00 0.00 65 1011.9
20260905150231 83 199 3.5 5.2 0.00 0.00 0.00 64 1011.8
20260905145729 82 332 0.9 0.9 0.00 0.00 0.00 66 1011.7
20260905145224 82 245 2.6 2.6 0.00 0.00 0.00 67 1011.8
20260905144723 81 234 1.7 1.7 0.00 0.00 0.00 68 1011.8
20260905144218 80 192 4.3 6.1 0.00 0.00 0.00 69 1011.8
20260905143717 81 225 2.6 3.5 0.00 0.00 0.00 69 1011.8
20260905143217 80 40 0.0 0.0 0.00 0.00 0.00 71 1011.7
20260905142715 79 172 3.5 3.5 0.00 0.00 0.00 71 1012.0
20260905142211 79 236 4.3 6.1 0.00 0.00 0.00 72 1012.1
20260905141706 79 160 3.5 5.2 0.00 0.00 0.00 71 1012.0
20260905141202 79 229 3.5 3.5 0.00 0.00 0.00 73 1012.0
20260905140657 79 35 0.0 0.0 0.00 0.00 0.00 74 1012.2
20260905140157 78 211 1.7 2.6 0.00 0.00 0.00 73 1012.1
20260905135652 78 258 0.9 1.7 0.00 0.00 0.00 75 1012.0
20260905135148 77 231 1.7 3.5 0.00 0.00 0.00 77 1012.1
20260905134647 76 14 0.9 0.9 0.00 0.00 0.00 78 1012.1
20260905134146 75 183 0.9 1.7 0.00 0.00 0.00 79 1011.9
20260905133642 75 321 1.7 2.6 0.00 0.00 0.00 80 1011.7
20260905133142 75 236 0.9 1.7 0.00 0.00 0.00 81 1011.8
20260905132641 74 322 0.9 0.9 0.00 0.00 0.00 82 1011.9
20260905132136 74 313 0.9 0.9 0.00 0.00 0.00 82 1011.9
20260905131631 74 23 0.0 0.0 0.00 0.00 0.00 83 1011.9
20260905131127 74 343 0.9 1.7 0.00 0.00 0.00 83 1011.9
20260905130627 74 245 2.6 2.6 0.00 0.00 0.00 83 1012.2
20260905130126 74 15 0.9 0.9 0.00 0.00 0.00 83 1012.1
20260905125621 74 218 1.7 1.7 0.00 0.00 0.00 83 1012.3
20260905125117 74 76 0.9 1.7 0.00 0.00 0.00 84 1012.3
20260905124613 74 274 0.9 1.7 0.00 0.00 0.00 85 1012.4
20260905124109 73 0 2.6 3.5 0.00 0.00 0.00 87 1012.2
20260905123603 73 333 1.7 2.6 0.00 0.00 0.00 86 1012.0
20260905123101 73 123 5.2 7.0 0.00 0.00 0.00 84 1012.0
20260905122601 74 122 2.6 3.5 0.00 0.00 0.00 85 1012.1
20260905122101 74 342 0.9 1.7 0.00 0.00 0.00 86 1012.1
20260905121555 74 358 2.6 2.6 0.00 0.00 0.00 87 1012.1
20260905121051 75 245 0.9 2.6 0.00 0.00 0.00 94 1011.9
20260905120550 75 65 0.0 0.9 0.00 0.00 0.00 95 1011.8
20260905120045 75 22 0.0 0.0 0.00 0.00 0.00 95 1011.4
20260905115544 75 261 1.7 1.7 0.00 0.00 0.00 97 1011.4
20260905115039 75 59 0.9 1.7 0.00 0.00 0.00 97 1011.5
20260905114538 74 94 3.5 7.0 0.00 0.00 0.00 97 1011.3
20260905114037 74 80 5.2 7.8 0.00 0.00 0.00 97 1011.5
20260905113532 74 39 0.0 0.0 0.00 0.00 0.00 97 1010.5
20260905113028 74 38 0.0 0.0 0.00 0.00 0.00 97 1010.6
20260905112523 74 319 0.0 0.9 0.00 0.00 0.00 97 1010.8
20260905112019 74 316 0.9 1.7 0.00 0.00 0.00 97 1010.5
20260905111519 73 287 0.9 0.9 0.00 0.00 0.00 97 1010.4
20260905111018 73 222 0.0 0.0 0.00 0.00 0.00 97 1010.3
20260905110517 73 222 0.0 0.0 0.00 0.00 0.00 96 1010.3
20260905110013 74 222 0.0 0.0 0.00 0.00 0.00 96 1010.3
20260905105507 74 222 0.0 0.0 0.00 0.00 0.00 96 1010.2
20260905105007 74 222 0.0 0.0 0.00 0.00 0.00 97 1010.2
20260905104503 74 222 0.0 0.0 0.00 0.00 0.00 96 1010.3
20260905104002 74 222 0.0 0.0 0.00 0.00 0.00 96 1010.1
20260905103458 74 222 0.0 0.0 0.00 0.00 0.00 96 1010.2
20260905102954 74 224 0.9 0.9 0.00 0.00 0.00 96 1010.0
20260905102450 74 224 0.0 0.0 0.00 0.00 0.00 96 1009.9
20260905101945 74 224 0.0 0.9 0.00 0.00 0.00 96 1010.1
20260905101444 74 224 0.9 0.9 0.00 0.00 0.00 97 1009.9
20260905100943 74 224 0.9 0.9 0.00 0.00 0.00 96 1010.3
20260905100439 74 224 0.9 0.9 0.00 0.00 0.00 96 1010.3
20260905095938 74 224 0.0 0.0 0.00 0.00 0.00 97 1010.2
20260905095438 74 229 1.7 1.7 0.00 0.00 0.00 97 1010.2
20260905094933 74 232 1.7 1.7 0.00 0.00 0.00 97 1010.1
20260905094429 74 272 0.0 0.0 0.00 0.00 0.00 97 1010.2
20260905093927 74 292 0.0 0.0 0.00 0.00 0.00 96 1010.3
20260905093423 74 292 0.0 0.0 0.00 0.00 0.00 96 1010.2
20260905092918 74 292 0.0 0.0 0.00 0.00 0.00 96 1010.3
20260905092413 74 292 0.0 0.0 0.00 0.00 0.00 96 1010.2
20260905091909 75 292 0.0 0.0 0.00 0.00 0.00 96 1010.2
20260905091409 75 291 0.0 0.0 0.00 0.00 0.00 96 1010.1
20260905090908 75 291 0.0 0.0 0.00 0.00 0.00 95 1010.2
20260905090404 75 291 0.0 0.0 0.00 0.00 0.00 95 1010.1
20260905085903 75 291 0.0 0.0 0.00 0.00 0.00 95 1010.1
20260905085403 75 292 0.0 0.0 0.00 0.00 0.00 95 1010.0
20260905084859 76 292 0.0 0.0 0.00 0.00 0.00 95 1010.1
20260905084357 76 291 0.0 0.0 0.00 0.00 0.00 95 1009.7
20260905083853 76 291 0.0 0.0 0.00 0.00 0.00 95 1009.8
20260905083348 76 291 0.0 0.0 0.00 0.00 0.00 95 1009.8
20260905082844 76 321 0.9 0.9 0.00 0.00 0.00 95 1009.7
20260905082340 76 310 0.0 0.9 0.00 0.00 0.00 96 1009.8
20260905081835 75 296 0.9 0.9 0.00 0.00 0.00 96 1009.5
20260905081330 75 260 1.7 1.7 0.00 0.00 0.00 96 1009.8
20260905080829 75 301 0.0 0.0 0.00 0.00 0.00 96 1009.7
20260905080324 75 300 0.0 0.0 0.00 0.00 0.00 97 1009.6